Regional Weather Roundup
Issued by NWS

Home | Current Version | Previous Version | Text Only | Print | Product List | Glossary Off
Versions: 1 2 3 4 5 6 7 8 9 10 11 12 13 14 15 16 17 18 19 20 21 22 23 24 25 26 27 28 29 30 31 32 33 34 35 36 37 38 39 40 41 42 43 44 45 46 47 48 49 50

000
ASUS43 KMKX 240520
RWRWI

WISCONSIN REGIONAL WEATHER ROUNDUP
NATIONAL WEATHER SERVICE MILWAUKEE/SULLIVAN WI
1100 PM CST THU NOV 23 2017

NOTE: "FAIR" INDICATES FEW OR NO CLOUDS BELOW 12,000 FEET WITH NO
SIGNIFICANT WEATHER AND/OR OBSTRUCTIONS TO VISIBILITY.

WIZ001-002-006>008-014>016-023>028-240600-
NORTHWEST WISCONSIN

CITY           SKY/WX    TMP DP  RH WIND       PRES   REMARKS
SUPERIOR ARPT  MOCLDY    40  28  63 SW9       29.49F WCI  34
ASHLAND        CLOUDY    40  25  55 S15G22    29.53F WCI  32
HAYWARD        MOCLDY    39  26  59 S14       29.57F WCI  31
SIREN          CLOUDY    42  29  61 S9        29.56F
CUMBERLAND     CLOUDY    34  27  75 S7        29.59F WCI  28
RICE LAKE      CLOUDY    38  27  64 SE7       29.62F WCI  33
CHETEK         CLOUDY    38  27  63 SE7       29.63F WCI  33
LADYSMITH      CLOUDY    38  26  60 S9        29.65F WCI  32
EAU CLAIRE     PTCLDY    33  23  66 SE3       29.65F
MENOMONIE      CLOUDY    42  28  59 S9        29.63F
NEW RICHMOND   CLOUDY    41  29  62 S8        29.59F
OSCEOLA        PTCLDY    42  30  64 S10       29.61F
$$

WIZ003>005-009-010-017-018-240600-
NORTH CENTRAL WISCONSIN

CITY           SKY/WX    TMP DP  RH WIND       PRES   REMARKS
MANITOWISH WTR CLOUDY    33  25  72 S8        29.60F WCI  26
ARBOR VITAE    CLOUDY    37  27  67 S9        29.62F WCI  30
WOODRUFF       CLOUDY    37  27  67 S9        29.62F WCI  30
RHINELANDER    CLOUDY    36  23  59 SW9G21    29.65F WCI  29
EAGLE RIVER    CLOUDY    35  22  60 SW7       29.62F WCI  29
LAND O LAKES   CLOUDY    35  24  65 S8        29.61F WCI  29
PHILLIPS       MOCLDY    35  24  65 S9        29.63S WCI  28
TOMAHAWK       MOCLDY    34  23  64 S3        29.66F
MEDFORD        MOCLDY    36  25  64 S12       29.66F WCI  28
MERRILL        CLOUDY    36  24  60 SW6       29.68F WCI  32
$$

WIZ029-030-035-036-043>047-240600-
CENTRAL WISCONSIN

CITY           SKY/WX    TMP DP  RH WIND       PRES   REMARKS
WAUSAU         CLOUDY    36  24  62 SE8       29.68F WCI  30
MOSINEE        NOT AVBL
MARSHFIELD     CLOUDY    36  23  59 SW10      29.68F WCI  28
STEVENS POINT  CLOUDY    35  23  61 S10       29.72F WCI  27
WAUPACA        CLOUDY    37  25  62 S6        29.74F WCI  32
WAUTOMA        PTCLDY    33  22  63 S6        29.76F WCI  28
WISC RAPIDS    CLOUDY    37  24  59 S7        29.73F WCI  32
CAMP DOUGLAS   CLOUDY    38  26  60 S5        29.73F WCI  35
$$

WIZ011>013-019>022-031-037>040-048>050-240600-
NORTHEAST WISCONSIN

CITY           SKY/WX    TMP DP  RH WIND       PRES   REMARKS
ANTIGO         CLOUDY    33  24  67 S9        29.69F WCI  26
SHAWANO        CLOUDY    37  24  58 SW5       29.72F WCI  34
OCONTO         CLOUDY    34  23  65 S3        29.75F
STURGEON BAY   PTCLDY    34  23  64 S12       29.76F WCI  25
GREEN BAY      PTCLDY    32  27  81 SW5       29.76F WCI  27
MANITOWOC      MOCLDY    34  24  67 S10       29.79F WCI  26
APPLETON       MOCLDY    36  21  55 S9        29.75F WCI  29
CLINTONVILLE   CLOUDY    36  21  55 SW8       29.74F WCI  29
OSHKOSH        CLOUDY    36  26  67 S10       29.76F WCI  28
$$

WIZ032>034-041-042-053>061-240600-
SOUTHWEST WISCONSIN

CITY           SKY/WX    TMP DP  RH WIND       PRES   REMARKS
LA CROSSE      CLOUDY    39  27  62 S12       29.74F WCI  32
SPARTA         CLEAR     39  28  63 S5        29.74F
VIROQUA        CLOUDY    38  29  70 SW13      29.75F WCI  30
BOSCOBEL       CLEAR     27  22  81 CALM      29.81F
PRAIRIE DU CHI CLEAR     32  25  74 CALM      29.79F
PLATTEVILLE    CLEAR     37  29  74 S13       29.82F WCI  29
$$

WIZ056-057-062-063-064-067-068-240600-
SOUTH CENTRAL WISCONSIN

CITY           SKY/WX    TMP DP  RH WIND       PRES   REMARKS
REEDSBURG      CLEAR     36  26  67 S7        29.77F WCI  31
BARABOO/DELLS  CLEAR     35  25  67 S6        29.77F WCI  30
LONE ROCK      NOT AVBL
MINERAL POINT  CLEAR     36  30  80 S9        29.80F WCI  29
MADISON        CLEAR     35  26  69 S7        29.81F WCI  29
MIDDLETON      CLEAR     36  26  68 S5        29.81F WCI  32
WATERTOWN      CLEAR     31  26  81 S6        29.83F WCI  25
MONROE         CLEAR     32  27  80 S12       29.82F WCI  23
JANESVILLE     CLEAR     34  27  75 S3        29.85F
$$

WIZ051-052-058>065-066-070>072-240600-
SOUTHEAST WISCONSIN

CITY           SKY/WX    TMP DP  RH WIND       PRES   REMARKS
MILWAUKEE      CLEAR     35  25  66 S5        29.86F WCI  31
WAUKESHA       CLEAR     32  23  69 S6        29.85F WCI  26
MILWAUKEE/TIMM PTCLDY    32  23  69 S6        29.85F WCI  26
RACINE         CLEAR     33  26  75 SW8       29.88F WCI  26
BURLINGTON     CLEAR     28  28 100 CALM      29.86F
KENOSHA        CLEAR     34  25  69 SW6       29.88S WCI  29
FOND DU LAC    CLOUDY    34  25  69 S12       29.78F WCI  25
SHEBOYGAN      CLEAR     29  24  82 S8        29.80F WCI  21
WEST BEND      CLEAR     32  27  80 S3        29.81F
JUNEAU         CLEAR     32  25  74 S7        29.82F WCI  26
$$

LSZ147-162-240600-
LAKE SUPERIOR

STATION/POSITION TIME  TEMP    WIND        PRES    WAVE
                       AIR SEA DIR/SP/G            HT/PER
                 (UTC) (F)     (DEG/KT/KT) (MB)    (FT/S)
DEVILS ISLAND    0500   39     190/  9/ 11  999.8F
SAXON HARBOR     0500   42     180/  5/ 15  999.7
$$

LMZ867-665-643>646-240600-
LAKE MICHIGAN

STATION/POSITION TIME  TEMP    WIND        PRES    WAVE
                       AIR SEA DIR/SP/G            HT/PER
                 (UTC) (F)     (DEG/KT/KT) (MB)    (FT/S)
N MID LAKE BUOY  0450   43 47  200/ 19/ 23 1008.2F   3/ 5
NORTHPORT PIER   0501   37     200/  2/ 12 1007.8
KEWAUNEE LAKESHO 0454   37     200/  9/ 12 1008.1S
SHEBOYGAN LAKESH 0500   37     200/ 14/ 15 1009.7F
PORT WASHINGTON  0440   35     240/  6/ 12 1011.5F
MILWAUKEE LAKESH 0500   37     220/ 11/ 12   N/A
S MID LAKE BUOY  0450   44 47  240/ 14/ 16 1012.2F
KENOSHA   LAKESH 0500   37     210/  7/  9 1011.9
$$

TC  - TEMPERATURE IN CELSIUS
VSB - VISIBILITY IN STATUTE MILES
WCI - WIND CHILL INDEX
HX  - HEAT INDEX




USA.gov is the U.S. government's official web portal to all federal, state and local government web resources and services.